OBJECT E, 65789

Orbit data source: Space-Track

You're viewing an Uncataloged Satellite

Recently launched and/or uncataloged satellites may have evolving metadata. Metadata may include but not limited to: Owner, Maufacturer, Bus, Motor, and Mission.

OBJECT E, 65789 is a satellite owned by IRSA (IR) in LEO that was launched on Sun, 28 Jan 2024 UTC launched from the Semnan, Iran (SEM). Unknown objects in Earth's orbit typically refer to objects detected orbiting the Earth but have not yet been identified or cataloged. These objects could be anything from previously untracked satellites, spent rocket stages, debris from satellite collisions, or even natural meteoroids temporarily captured by Earth's gravity.

Loading next visibility...
Identifier
65789, 2024-018E
Orbit
LEO
Country
Flag of IRIR / IRAN
Related business
Manufacturer
IRSA
Mission
Spacecraft
Bus & Motor
Unknown
Mass
Unknown
Launch date (UTC)
2024-01-28 (2 years ago)
Launch vehicle
Unknown
Launch site
Semnan, Iran (SEM)
Object type
Unknown
Shape & HBR
Unknown shape, 0.1 m
Radar Cross Section
Small (<0.1 m²)

Expand to show TLE details & history
Last TLE update: 5 days ago

TLE from 5 days ago
0 OBJECT E
1 65789U 24018E   26167.37264661  .00004158  00000-0  38646-3 0  9995
2 65789  58.9587 205.4513 0372558  59.2476 304.4693 14.55676710108844
Epoch: 2026-06-16T08:56Z
TLE epoch observation values (Epoch: 2026-06-16T08:56:36.667Z)
Latitude
-0.00005°
Longitude
166.65287°
Altitude
566.111 km
Speed
7.655 km/s
True Right ascension
13h 41m 48s
True Declination
0° 00' 00"
Sunlit
Object was in full shadow at epoch
Visualization orbit readout
Latitude
Unknown
Longitude
Unknown
Altitude
Unknown
Speed
Unknown
Apparent Right ascension
Unknown
Apparent Declination
Unknown
Sunlit
N/A
Visualization observer readout
Local Sidereal Time
08:33:42
Azimuth
Unknown
Elevation
Unknown
Doppler factor
Unknown
Orbital elements
Apogee altitude
970.488 km
Perigee altitude
442.597 km
Semi-major axis
7,084.679 km
Eccentricity
0.03726
Inclination
58.9587°
RAAN
205.4513°
Arg. of periapsis
59.2476°
True anomaly
300.85688°
Mean anomaly
304.4693°
Eccentric anomaly
302.67246°
Mean motion
3.63968 °/min
Orbital period
98.91 mins
BSTAR
0.00038646
Loading maneuver chart data...
Computing Atmospheric mass density...
Loading historical data...
Loading historical data...
Loading historical data...
Loading historical data...
Loading historical data...
Loading historical data...
Loading historical data...
Other satellites on launch #18 in the year 2024 (2024-01-28 UTC)

Documentation

Showing up to 5 results
|